Location: Newark
(48.3453°N, 0.5589°E)
Time: 01:43:29
(UTC+00:00)

Vanguard 2 - Visible Passes

Search period start: 07 December 2019 00:00
Search period end: 17 December 2019 00:00
Orbit: 553 x 2938 km, 32.9° (Epoch: 06 December)

Date Brightness Start Highest point End Pass type
(mag) Time Alt. Az. Time Alt. Az. Time Alt. Az.
07 Dec 11.5 01:01:07 20° ESE 01:01:07 20° ESE 01:07:38 10° E visible
07 Dec 10.8 03:02:32 39° S 03:05:19 41° SSE 03:19:41 10° ESE visible
07 Dec 10.7 05:03:56 20° WSW 05:16:03 45° S 05:28:54 10° ESE visible
08 Dec 11.3 01:18:00 25° ESE 01:18:00 25° ESE 01:26:14 10° E visible
08 Dec 10.7 03:19:25 40° SSW 03:22:56 44° S 03:37:33 10° ESE visible
08 Dec 10.7 05:20:49 17° WSW 05:33:41 43° SSW 05:46:24 10° SE visible
09 Dec 11.2 01:34:51 30° SE 01:34:51 30° SE 01:44:33 10° E visible
09 Dec 10.7 03:36:16 40° SSW 03:40:36 46° S 03:55:20 10° ESE visible
09 Dec 10.8 05:37:40 15° WSW 05:51:16 41° SSW 06:03:47 10° SE visible
10 Dec 11.0 01:51:39 35° SE 01:51:39 35° SE 02:02:39 10° E visible
10 Dec 10.7 03:53:03 39° SW 03:58:17 46° S 04:13:02 10° ESE visible
10 Dec 10.9 05:54:27 12° W 06:08:46 37° SSW 06:20:59 10° SE visible
11 Dec 11.8 00:07:02 11° E 00:07:02 11° E 00:07:53 10° E visible
11 Dec 10.9 02:08:26 39° SE 02:08:26 39° SE 02:20:38 10° ESE visible
11 Dec 10.7 04:09:50 36° SW 04:15:57 46° S 04:30:38 10° ESE visible
11 Dec 11.0 06:11:40 10° W 06:26:10 33° SSW 06:37:59 10° SSE visible
12 Dec 11.7 00:23:48 15° ESE 00:23:48 15° ESE 00:26:25 10° E visible
12 Dec 10.7 02:25:12 43° SSE 02:25:12 43° SSE 02:38:29 10° ESE visible
12 Dec 10.7 04:26:36 33° SW 04:33:35 44° SSW 04:48:06 10° SE visible
12 Dec 11.1 06:30:00 10° W 06:43:29 28° SW 06:54:42 10° SSE visible
13 Dec 11.6 00:40:33 19° ESE 00:40:33 19° ESE 00:44:42 10° E visible
13 Dec 10.6 02:41:57 45° SSE 02:41:57 45° SSE 02:56:16 10° ESE visible
13 Dec 10.8 04:43:21 29° WSW 04:51:11 41° SSW 05:05:26 10° SE visible
13 Dec 11.3 06:48:36 10° W 07:00:41 24° SW 07:11:00 10° S visible
14 Dec 11.4 00:57:19 22° ESE 00:57:19 22° ESE 01:02:47 10° E visible
14 Dec 10.6 02:58:43 46° S 02:58:43 46° S 03:13:57 10° ESE visible
14 Dec 10.9 05:00:07 25° WSW 05:08:42 38° SSW 05:22:33 10° SE visible
15 Dec 11.3 01:14:05 26° ESE 01:14:05 26° ESE 01:20:45 10° ESE visible
15 Dec 10.6 03:15:29 45° S 03:15:37 45° S 03:31:31 10° ESE visible
15 Dec 11.0 05:16:53 21° WSW 05:26:09 33° SSW 05:39:27 10° SSE visible
16 Dec 11.2 01:30:51 29° ESE 01:30:51 29° ESE 01:38:36 10° ESE visible
16 Dec 10.6 03:32:16 43° SSW 03:33:17 43° SSW 03:48:57 10° SE visible
16 Dec 11.1 05:33:40 17° WSW 05:43:29 28° SSW 05:56:00 10° SSE visible
